CW2664 Weather Reports


time (UTC)temp
C
wind
direction
speed
KPH
gust
KPH
rain 1hr
cm
rain 24hr
cm
rain mn
cm
humidity
%
barometer
mb
20260503195546 25 29 8.0 16.1 0.00 0.00 0.00 45 1010.0
20260503194647 25 45 8.0 17.7 0.00 0.00 0.00 51 1010.1
20260503193746 25 37 9.7 17.7 0.00 0.00 0.00 49 1010.2
20260503192846 24 26 8.0 20.9 0.00 0.00 0.00 52 1010.3
20260503191946 23 18 9.7 17.7 0.00 0.00 0.00 55 1010.5
20260503185246 22 21 9.7 17.7 0.00 0.00 0.00 59 1010.7
20260503184346 22 18 9.7 16.1 0.00 0.00 0.00 61 1010.8
20260503183447 21 10 8.0 14.5 0.00 0.00 0.00 62 1010.9
20260503182545 21 16 9.7 14.5 0.00 0.00 0.00 63 1011.0
20260503181646 20 8 9.7 14.5 0.00 0.00 0.00 63 1011.1
20260503180745 20 14 11.3 17.7 0.00 0.00 0.00 64 1011.1
20260503175846 20 29 9.7 17.7 0.00 0.00 0.00 64 1011.1
20260503173145 20 36 14.5 30.6 0.00 0.00 0.00 62 1011.3
20260503172246 19 40 12.9 22.5 0.00 0.00 0.00 62 1011.3
20260503171345 19 51 14.5 24.1 0.00 0.00 0.00 62 1011.4
20260503170446 18 46 14.5 25.7 0.00 0.00 0.00 62 1011.5
20260503150745 17 105 14.5 29.0 0.00 0.00 0.00 62 1011.8
20260503131045 14 68 6.4 16.1 0.00 0.00 0.00 80 1011.3
20260503130145 14 49 8.0 19.3 0.00 0.00 0.00 80 1011.4
20260503110445 15 92 9.7 17.7 0.00 0.00 0.00 83 1011.8
20260503100146 14 96 4.8 8.0 0.00 0.00 0.00 85 1012.1
20260503081345 15 95 1.6 4.8 0.00 0.00 0.00 84 1012.1
20260503080445 15 98 3.2 4.8 0.00 0.00 0.00 85 1012.1
20260503072845 15 152 4.8 8.0 0.00 0.00 0.00 82 1012.1
20260503071945 17 116 8.0 12.9 0.00 0.00 0.00 80 1012.2
20260503070145 16 105 4.8 9.7 0.00 0.00 0.00 83 1012.3
20260503054945 17 133 6.4 12.9 0.00 0.00 0.00 79 1012.3
20260503054045 17 49 9.7 16.1 0.00 0.00 0.00 79 1012.1
20260503052245 18 49 12.9 22.5 0.00 0.00 0.00 76 1011.8
20260503051345 18 64 9.7 16.1 0.00 0.00 0.00 76 1012.1
20260503045545 17 24 6.4 9.7 0.00 0.00 0.00 77 1012.3
20260503043745 17 38 6.4 9.7 0.00 0.00 0.00 79 1012.4
20260503042845 17 109 1.6 4.8 0.00 0.00 0.00 78 1012.6
20260503041045 17 40 8.0 11.3 0.00 0.00 0.00 77 1012.4
20260503040145 17 41 6.4 11.3 0.00 0.00 0.00 76 1012.4
20260503034345 17 39 4.8 8.0 0.00 0.00 0.00 77 1012.3
20260503033445 18 140 3.2 6.4 0.00 0.00 0.00 76 1012.3
20260503032546 18 218 6.4 11.3 0.00 0.00 0.00 76 1012.3
20260503031645 18 211 9.7 12.9 0.00 0.00 0.00 76 1012.3
20260503030745 18 232 8.0 12.9 0.00 0.00 0.00 75 1012.2
20260503025845 18 235 11.3 16.1 0.00 0.00 0.00 73 1012.1
20260503024945 19 227 12.9 20.9 0.00 0.00 0.00 71 1012.0
20260503024045 19 225 12.9 22.5 0.00 0.00 0.00 70 1011.9
20260503023145 20 228 12.9 22.5 0.00 0.00 0.00 71 1011.8
20260503022245 20 231 12.9 22.5 0.00 0.00 0.00 72 1011.9
20260503021345 20 228 9.7 14.5 0.00 0.00 0.00 72 1011.7
20260503020445 20 210 8.0 12.9 0.00 0.00 0.00 71 1011.3
20260503014645 20 194 8.0 11.3 0.00 0.00 0.00 69 1011.1
20260503012845 20 203 6.4 9.7 0.00 0.00 0.00 69 1011.0
20260503011945 20 208 6.4 9.7 0.00 0.00 0.00 68 1011.1
20260503011045 21 223 4.8 8.0 0.00 0.00 0.00 68 1011.1
20260503010145 21 218 4.8 8.0 0.00 0.00 0.00 67 1011.0
20260503005245 21 233 3.2 6.4 0.00 0.00 0.00 66 1011.1
20260503004345 21 215 3.2 6.4 0.00 0.00 0.00 66 1011.1
20260503002024 20 265 3.2 6.4 0.00 0.00 0.00 68 1011.1
20260503001124 20 252 4.8 9.7 0.00 0.00 0.00 68 1011.1
20260503000226 20 253 6.4 11.3 0.00 0.00 0.00 68 1011.2
20260502235325 20 282 4.8 11.3 0.00 0.00 0.00 68 1011.2
20260502234425 20 330 4.8 9.7 0.00 0.00 0.00 68 1011.1
20260502233525 20 330 6.4 12.9 0.00 0.00 0.00 70 1011.2
20260502232624 20 317 6.4 12.9 0.00 0.00 0.00 70 1011.3
20260502231724 19 329 6.4 12.9 0.00 0.00 0.00 70 1011.6
20260502230825 19 331 6.4 12.9 0.00 0.00 0.00 69 1011.6
20260502225924 19 356 6.4 12.9 0.00 0.00 0.00 71 1011.7
20260502225025 18 346 9.7 14.5 0.00 0.00 0.00 71 1011.8
20260502224125 18 350 6.4 12.9 0.00 0.00 0.00 71 1012.0
20260502223224 18 13 6.4 12.9 0.00 0.00 0.00 71 1012.2
20260502222325 18 354 6.4 11.3 0.00 0.00 0.00 70 1012.3
20260502221424 18 358 4.8 14.5 0.00 0.00 0.00 71 1012.5
20260502220524 18 337 4.8 11.3 0.00 0.00 0.00 73 1012.6
20260502215625 17 332 8.0 12.9 0.00 0.00 0.00 74 1012.8
20260502214724 17 354 4.8 11.3 0.00 0.00 0.00 74 1012.9
20260502213824 16 30 6.4 14.5 0.00 0.00 0.00 75 1013.0
20260502212924 16 13 6.4 11.3 0.00 0.00 0.00 75 1013.1
20260502212024 16 28 4.8 9.7 0.00 0.00 0.00 75 1013.3
20260502211124 16 42 6.4 12.9 0.00 0.00 0.00 76 1013.3
20260502210224 16 352 8.0 12.9 0.00 0.00 0.00 77 1013.6
20260502205324 16 14 6.4 12.9 0.00 0.00 0.00 77 1013.8
20260502204424 16 16 8.0 14.5 0.00 0.00 0.00 78 1013.8
20260502203524 15 23 6.4 14.5 0.00 0.00 0.00 77 1013.9
20260502202624 16 317 4.8 12.9 0.00 0.00 0.00 76 1014.1
20260502201725 16 309 4.8 12.9 0.00 0.00 0.00 76 1014.2
20260502200826 15 3 3.2 9.7 0.00 0.00 0.00 79 1014.4